Location: Ch�tillon
(48.8024°N, 2.2935°E)
Time: 23:11:48
(UTC+00:00)

ESTCUBE 1 - Visible Passes

Search period start: 27 June 2022 00:00
Search period end: 07 July 2022 00:00
Orbit: 644 x 659 km, 97.9° (Epoch: 27 June)

Date Brightness Start Highest point End Pass type
(mag) Time Alt. Az. Time Alt. Az. Time Alt. Az.
27 Jun ? 21:23:22 14° SE 21:26:58 50° ENE 21:31:18 10° N visible
27 Jun ? 23:01:12 12° SW 23:04:00 20° W 23:07:19 10° NW visible
28 Jun ? 21:50:41 19° SSE 21:53:56 90° NNE 21:58:25 10° NNW visible
28 Jun ? 23:30:01 10° WSW 23:31:21 11° W 23:32:40 10° WNW visible
29 Jun ? 20:41:08 10° ESE 20:44:32 22° ENE 20:47:57 10° NNE visible
29 Jun ? 22:18:00 19° SSW 22:20:58 50° W 22:25:21 10° NNW visible
30 Jun ? 21:07:30 11° SE 21:11:19 36° ENE 21:15:25 10° N visible
30 Jun ? 22:45:19 15° SW 22:48:08 28° W 22:51:59 10° NW visible
01 Jul ? 21:34:49 17° SSE 21:38:12 65° ENE 21:42:39 10° N visible
01 Jul ? 23:12:40 10° SW 23:15:25 16° W 23:18:09 10° NW visible
02 Jul ? 22:02:07 20° S 22:05:12 71° WSW 22:09:41 10° NNW visible
03 Jul ? 20:51:58 10° ESE 20:55:41 27° ENE 20:59:27 10° N visible
03 Jul ? 22:29:26 18° SSW 22:32:18 38° W 22:36:30 10° NNW visible
04 Jul ? 21:18:56 14° SE 21:22:31 46° ENE 21:26:49 10° N visible
04 Jul ? 22:56:45 13° SW 22:59:29 22° W 23:02:59 10° NW visible
05 Jul ? 21:46:15 19° SSE 21:49:26 83° ENE 21:53:57 10° NNW visible
05 Jul ? 23:24:56 10° WSW 23:26:48 12° W 23:28:40 10° WNW visible
06 Jul ? 20:36:49 10° ESE 20:40:05 20° ENE 20:43:22 10° NNE visible
06 Jul ? 22:13:33 20° S 22:16:28 55° W 22:20:53 10° NNW visible
